Spearfish, SD

2:03 PM MST on December 16, 2017 (GMT -0700)
Black Hills-Ice

Weather History for KSPF - January, 2013

Change the Weather History Date:

Friday, January 18, 2013

  Actual Average (KEFC) Record (KEFC)
Temperature  
Mean Temperature 46 °F -  
Max Temperature 50 °F 36 °F 60 °F (1965)
Min Temperature 42 °F 11 °F -17 °F (1977)
Degree Days  
Heating Degree Days 19    
Moisture  
Dew Point 12 °F    
Average Humidity 25    
Maximum Humidity 34    
Minimum Humidity 22    
Precipitation  
Precipitation 0.00 in - - ()
Sea Level Pressure  
Sea Level Pressure 29.91 in    
Wind  
Wind Speed 15 mph (West)    
Max Wind Speed 21 mph    
Max Gust Speed 34 mph    
Visibility 10 miles    
Events Thunderstorm    
Averages and records for this station are not official NWS values.
T = Trace of Precipitation, MM = Missing Value Source: NWS Daily Summary

Daily Weather History Graph

Daily Weather History Graph

Search for Another Location

Airport or City:

Trip Planner

Search our weather history database for the weather conditions in past years. The results will help you decide how hot, cold, wet, or windy it might be!

Date:

Astronomy

Jan. 18, 2013 Rise Set
Actual Time 8:26 AM CST 5:45 PM CST
Civil Twilight 7:53 AM CST 6:17 PM CST
Nautical Twilight 7:18 AM CST 6:53 PM CST
Astronomical Twilight 6:43 AM CST 7:28 PM CST
Moon 11:46 AM CST (1/18) 12:57 AM CST (1/18)
Length of Visible Light 10h 23m
Length of Day
9h 19m
Waxing Crescent, 47% of the Moon is Illuminated
Jan 18
Waxing Crescent
Jan 18
First Quarter
Jan 26
Full
Feb 3
Last Quarter
Feb 10
New

Hourly Weather History & Observations

Time (CST) Temp. Windchill Dew Point Humidity Pressure Visibility Wind Dir Wind Speed Gust Speed Precip Events Conditions
12:15 AM 44.6 °F 38.1 °F 14.0 °F 29% 29.99 in 10.0 mi WSW 13.8 mph - N/A   Clear
12:35 AM 42.8 °F 36.2 °F 14.0 °F 31% 29.98 in 10.0 mi WSW 12.7 mph - N/A   Clear
12:55 AM 44.6 °F 39.2 °F 14.0 °F 29% 29.98 in 10.0 mi West 10.4 mph - N/A   Clear
1:15 AM 42.8 °F 37.5 °F 14.0 °F 31% 29.97 in 10.0 mi West 9.2 mph - N/A   Clear
1:35 AM 44.6 °F 39.2 °F 12.2 °F 27% 29.97 in 10.0 mi WSW 10.4 mph - N/A   Clear
1:55 AM 46.4 °F 40.4 °F 12.2 °F 25% 29.96 in 10.0 mi West 13.8 mph 17.3 mph N/A   Clear
2:15 AM 44.6 °F 38.4 °F 12.2 °F 27% 29.96 in 10.0 mi WSW 12.7 mph 17.3 mph N/A   Clear
2:35 AM 44.6 °F 38.8 °F 12.2 °F 27% 29.97 in 10.0 mi West 11.5 mph 19.6 mph N/A   Clear
2:55 AM 44.6 °F 38.1 °F 12.2 °F 27% 29.97 in 10.0 mi West 13.8 mph 18.4 mph N/A   Clear
3:15 AM 46.4 °F 41.1 °F 10.4 °F 23% 29.97 in 10.0 mi West 11.5 mph 21.9 mph N/A   Clear
3:35 AM 46.4 °F 40.4 °F 10.4 °F 23% 29.96 in 10.0 mi West 13.8 mph - N/A   Clear
3:55 AM 46.4 °F 40.7 °F 10.4 °F 23% 29.96 in 10.0 mi West 12.7 mph 23.0 mph N/A   Clear
4:15 AM 46.4 °F 40.1 °F 10.4 °F 23% 29.95 in 10.0 mi West 15.0 mph 20.7 mph N/A   Clear
4:35 AM 46.4 °F 40.7 °F 10.4 °F 23% 29.95 in 10.0 mi West 12.7 mph 21.9 mph N/A   Clear
4:55 AM 46.4 °F 40.7 °F 10.4 °F 23% 29.95 in 10.0 mi West 12.7 mph 21.9 mph N/A   Clear
5:15 AM 44.6 °F 37.8 °F 10.4 °F 25% 29.94 in 10.0 mi West 15.0 mph 19.6 mph N/A   Clear
5:35 AM 44.6 °F 37.8 °F 10.4 °F 25% 29.94 in 10.0 mi West 15.0 mph 20.7 mph N/A   Clear
5:55 AM 44.6 °F 37.2 °F 10.4 °F 25% 29.93 in 10.0 mi West 17.3 mph 23.0 mph N/A   Clear
6:15 AM 44.6 °F 38.1 °F 10.4 °F 25% 29.93 in 10.0 mi West 13.8 mph 18.4 mph N/A   Clear
6:35 AM 44.6 °F 38.1 °F 10.4 °F 25% 29.93 in 10.0 mi West 13.8 mph 20.7 mph N/A   Clear
6:55 AM 44.6 °F 37.4 °F 10.4 °F 25% 29.93 in 10.0 mi West 16.1 mph 21.9 mph N/A   Clear
7:15 AM 44.6 °F 38.4 °F 10.4 °F 25% 29.92 in 10.0 mi West 12.7 mph 18.4 mph N/A   Clear
7:35 AM 44.6 °F 37.4 °F 10.4 °F 25% 29.93 in 10.0 mi West 16.1 mph 23.0 mph N/A   Clear
7:55 AM 44.6 °F 37.4 °F 10.4 °F 25% 29.93 in 10.0 mi West 16.1 mph 23.0 mph N/A   Clear
8:15 AM 44.6 °F 37.4 °F 10.4 °F 25% 29.93 in 10.0 mi West 16.1 mph 26.5 mph N/A   Clear
8:35 AM 46.4 °F 39.5 °F 10.4 °F 23% 29.93 in 10.0 mi West 17.3 mph 24.2 mph N/A   Clear
9:15 AM 46.4 °F 39.5 °F 10.4 °F 23% 29.94 in 10.0 mi West 17.3 mph 27.6 mph N/A   Clear
9:35 AM 46.4 °F 38.7 °F 10.4 °F 23% 29.95 in 10.0 mi West 20.7 mph 28.8 mph N/A   Clear
9:55 AM 46.4 °F 39.0 °F 10.4 °F 23% 29.95 in 10.0 mi West 19.6 mph 26.5 mph N/A   Clear
10:15 AM 48.2 °F - 10.4 °F 22% 29.96 in 10.0 mi West 13.8 mph 24.2 mph N/A   Clear
10:35 AM 48.2 °F - 10.4 °F 22% 29.96 in 10.0 mi West 17.3 mph 27.6 mph N/A   Clear
10:55 AM 48.2 °F - 12.2 °F 24% 29.96 in 10.0 mi West 17.3 mph 25.3 mph N/A   Clear
11:35 AM 50.0 °F - 14.0 °F 24% 29.94 in 10.0 mi WNW 18.4 mph 24.2 mph N/A   Clear
11:55 AM 50.0 °F - 12.2 °F 22% 29.93 in 10.0 mi West 19.6 mph 29.9 mph N/A   Clear
12:15 PM 50.0 °F - 14.0 °F 24% 29.92 in 10.0 mi West 17.3 mph 26.5 mph N/A   Clear
12:35 PM 50.0 °F - 14.0 °F 24% 29.91 in 10.0 mi West 18.4 mph 25.3 mph N/A   Clear
12:55 PM 50.0 °F - 14.0 °F 24% 29.90 in 10.0 mi West 19.6 mph 26.5 mph N/A   Clear
1:15 PM 50.0 °F - 14.0 °F 24% 29.90 in 10.0 mi West 15.0 mph 24.2 mph N/A   Clear
1:55 PM 50.0 °F - 14.0 °F 24% 29.89 in 10.0 mi WNW 16.1 mph 25.3 mph N/A   Clear
2:15 PM 50.0 °F - 12.2 °F 22% 29.88 in 10.0 mi West 19.6 mph 28.8 mph N/A   Clear
2:35 PM 50.0 °F - 12.2 °F 22% 29.88 in 10.0 mi West 18.4 mph 26.5 mph N/A   Clear
2:55 PM 48.2 °F - 14.0 °F 25% 29.88 in 10.0 mi West 12.7 mph 18.4 mph N/A   Clear
3:15 PM 50.0 °F - 14.0 °F 24% 29.87 in 10.0 mi West 17.3 mph 26.5 mph N/A   Clear
3:35 PM 50.0 °F - 14.0 °F 24% 29.87 in 10.0 mi West 17.3 mph 25.3 mph N/A Thunderstorm Thunderstorm
3:55 PM 48.2 °F - 14.0 °F 25% 29.87 in 10.0 mi West 15.0 mph 23.0 mph N/A   Clear
4:15 PM 48.2 °F - 14.0 °F 25% 29.87 in 10.0 mi West 16.1 mph 27.6 mph N/A   Clear
4:35 PM 48.2 °F - 12.2 °F 24% 29.87 in 10.0 mi West 13.8 mph 20.7 mph N/A   Clear
4:55 PM 48.2 °F - 10.4 °F 22% 29.86 in 10.0 mi West 16.1 mph 20.7 mph N/A   Clear
5:15 PM 48.2 °F - 12.2 °F 24% 29.86 in 10.0 mi West 17.3 mph 26.5 mph N/A   Clear
5:35 PM 48.2 °F - 12.2 °F 24% 29.86 in 10.0 mi West 16.1 mph 25.3 mph N/A   Clear
5:55 PM 48.2 °F - 12.2 °F 24% 29.86 in 10.0 mi West 18.4 mph 34.5 mph N/A   Clear
6:15 PM 48.2 °F - 12.2 °F 24% 29.87 in 10.0 mi West 18.4 mph 29.9 mph N/A   Clear
6:35 PM 48.2 °F - 12.2 °F 24% 29.86 in 10.0 mi West 18.4 mph 31.1 mph N/A   Clear
6:55 PM 46.4 °F 40.1 °F 14.0 °F 27% 29.87 in 10.0 mi West 15.0 mph 20.7 mph N/A   Clear
7:15 PM 46.4 °F 39.8 °F 12.2 °F 25% 29.86 in 10.0 mi West 16.1 mph 25.3 mph N/A   Clear
7:35 PM 48.2 °F - 12.2 °F 24% 29.86 in 10.0 mi West 18.4 mph 26.5 mph N/A   Clear
7:55 PM 48.2 °F - 14.0 °F 25% 29.86 in 10.0 mi West 18.4 mph 25.3 mph N/A   Clear
8:35 PM 46.4 °F 39.8 °F 14.0 °F 27% 29.87 in 10.0 mi WNW 16.1 mph 23.0 mph N/A   Clear
8:55 PM 46.4 °F 40.7 °F 14.0 °F 27% 29.87 in 10.0 mi West 12.7 mph 20.7 mph N/A   Clear
9:15 PM 46.4 °F 40.1 °F 14.0 °F 27% 29.87 in 10.0 mi WNW 15.0 mph 21.9 mph N/A   Clear
9:35 PM 46.4 °F 40.1 °F 14.0 °F 27% 29.88 in 10.0 mi WNW 15.0 mph 24.2 mph N/A   Clear
9:55 PM 46.4 °F 40.4 °F 14.0 °F 27% 29.88 in 10.0 mi WNW 13.8 mph - N/A   Partly Cloudy
10:15 PM 46.4 °F 40.4 °F 15.8 °F 29% 29.89 in 10.0 mi WNW 13.8 mph 19.6 mph N/A   Mostly Cloudy
10:35 PM 46.4 °F 39.8 °F 15.8 °F 29% 29.89 in 10.0 mi WNW 16.1 mph 21.9 mph N/A   Mostly Cloudy
10:55 PM 44.6 °F 37.2 °F 15.8 °F 31% 29.90 in 10.0 mi WNW 17.3 mph 23.0 mph N/A   Scattered Clouds
11:15 PM 44.6 °F 37.8 °F 15.8 °F 31% 29.90 in 10.0 mi WNW 15.0 mph 23.0 mph N/A   Mostly Cloudy
11:35 PM 44.6 °F 37.4 °F 15.8 °F 31% 29.90 in 10.0 mi West 16.1 mph 21.9 mph N/A   Scattered Clouds
11:55 PM 42.8 °F 34.8 °F 15.8 °F 34% 29.90 in 10.0 mi WNW 17.3 mph 25.3 mph N/A   Clear